This is the latest recevied weather packets stored in our database for station/object WP3OF. If no packets are shown the sender has not sent any weather packets the latest 10 day(s).
| Time | Temp. | Humidity | Pressure | Rain* | Wind** | Luminosity | Snow |
|---|---|---|---|---|---|---|---|
| 1788539725 | 27.78° C | 83% | 1018.4 hPa | 0 mm | - | - | - |
| 1788539420 | 27.78° C | 82% | 1018.5 hPa | 0 mm | - | - | - |
| 1788539114 | 27.78° C | 81% | 1018.5 hPa | 0 mm | - | - | - |
| 1788538810 | 28.33° C | 82% | 1018.5 hPa | 0 mm | - | - | - |
| 1788538505 | 28.33° C | 81% | 1018.6 hPa | 0 mm | - | - | - |
| 1788538201 | 28.33° C | 80% | 1018.7 hPa | 0 mm | - | - | - |
| 1788537895 | 27.78° C | 80% | 1018.7 hPa | 0 mm | - | - | - |
| 1788537590 | 28.33° C | 80% | 1018.8 hPa | 0 mm | - | - | - |
| 1788537285 | 28.33° C | 78% | 1018.7 hPa | 0 mm | - | - | - |
| 1788536983 | 28.33° C | 77% | 1018.8 hPa | 0 mm | - | - | - |
| 1788536678 | 28.33° C | 78% | 1018.8 hPa | 0 mm | - | - | - |
| 1788536373 | 28.33° C | 81% | 1018.8 hPa | 0 mm | - | - | - |
| 1788536069 | 28.33° C | 80% | 1018.9 hPa | 0 mm | - | - | - |
| 1788535765 | 28.33° C | 77% | 1018.9 hPa | 0 mm | - | - | - |
| 1788535461 | 28.33° C | 77% | 1019.3 hPa | 0 mm | - | - | - |
| 1788535160 | 28.33° C | 77% | 1019.1 hPa | 0 mm | - | - | - |
| 1788534855 | 28.33° C | 77% | 1019.1 hPa | 0 mm | - | - | - |
| 1788534550 | 28.33° C | 76% | 1019.2 hPa | 0 mm | - | - | - |
| 1788534245 | 28.33° C | 73% | 1019.3 hPa | 0 mm | - | - | - |
| 1788533943 | 28.33° C | 72% | 1019.4 hPa | 0 mm | - | - | - |
| 1788533639 | 28.33° C | 73% | 1019.1 hPa | 0 mm | - | - | - |
| 1788533334 | 28.33° C | 75% | 1019.3 hPa | 0 mm | - | - | - |
| 1788533030 | 28.33° C | 74% | 1019.3 hPa | 0 mm | - | - | - |
| 1788532725 | 28.33° C | 73% | 1019.4 hPa | 0 mm | - | - | - |
| 1788532422 | 28.33° C | 72% | 1019.3 hPa | 0 mm | - | - | - |
* Rain latest hour (hover to see other rain measurements)
** Current wind speed in m/s (hover to see current wind gust speed)